Weather in Borovskoy

Kazakhstan     53°47′42″N   64°11′00″E
temp.,
°C
wind,
m/s
gust,
m/s
humid.,
%
clouds,
%
prec.,
mm/h
press.,
hPa
HPBL,
m
2 august, mon
mon200:00+22nw336950 0.0 101029
03:00+19nw3475100 0.1 101156
06:00+18nw227573 0.1 101219
09:00+23wnw236314 0.0 1012272
12:00+27nw224598 0.0 10121077
15:00+29nw463635 0.0 10122779
18:00+29nw673615 0.0 10122385
21:00+22n346097 0.0 101372
3 august, tue
tue300:00+20nne226328 0.0 101412
03:00+19nw116274 0.0 101411
06:00+18wsw33675 0.0 101427
09:00+23w46545 0.0 1015295
12:00+27wnw674177 0.0 10141259
15:00+29wnw6837100 0.0 10132042
18:00+30wnw6836100 0.0 10122338
21:00+26nw3451100 0.0 101169
4 august, wed
wed400:00+21nne226894 0.1 101224
03:00+20nnw337516 0.0 101230
06:00+19nne22785 0.0 101325
09:00+23n22578 0.0 1014277
12:00+27ene22425 0.1 10131133
15:00+30nne243717 0.0 10121946
18:00+30nne44365 0.0 10121933
21:00+25ne35485 0.0 101269
5 august, thu
thu500:00+21ese4752100 0.0 1013103
03:00+20sse355395 0.0 101278
06:00+19ssw115898 0.0 101211
09:00+24se22595 0.0 1012141
12:00+29sw224218 0.0 1012936
15:00+33ssw223228 0.0 10102097
18:00+34sse122964 0.0 10092717
21:00+28s1244100 0.0 100915
6 august, fri
fri600:00+24wsw345222 0.0 100957
03:00+20w3583100 1.4 1010100
06:00+19n118656 1.8 100911
09:00+23w336928 0.0 1010285
12:00+28nw324776 0.0 1008819
15:00+31wnw333843 0.0 10081794
18:00+30n324062 0.0 10071276
21:00+24ne4963100 0.4 1006204